Location: Unspecified
(0.0000°N, 0.0000°E)
Time: 12:42:02
(UTC+01:00)

Haruka - Visible Passes

Search period start: 01 February 2015 00:00
Search period end: 11 February 2015 00:00
Orbit: 543 x 21232 km, 31.3° (Epoch: 31 January)

Date Brightness Start Highest point End Pass type
(mag) Time Alt. Az. Time Alt. Az. Time Alt. Az.
01 Feb 6.9 06:44:18 10° NW 07:08:58 78° NE 11:39:32 10° SE visible
02 Feb 5.2 19:06:45 10° SW 19:49:52 90° SW 19:56:09 11° ENE visible
03 Feb 4.7 20:40:13 10° WSW 20:58:47 44° NW 21:01:31 28° N visible
04 Feb 6.7 03:42:21 22° NNE 03:46:44 25° NE 04:45:51 10° ESE visible
04 Feb 5.9 22:02:46 10° W 22:06:47 13° NW 22:06:53 13° NW visible
05 Feb 6.4 04:47:43 25° NNW 04:57:52 47° NE 08:36:39 10° SE visible
06 Feb 6.6 05:53:04 15° NW 06:11:02 71° NE 10:33:15 10° SE visible
08 Feb 5.3 19:35:32 10° WSW 20:06:21 59° NW 20:11:58 11° NE visible
09 Feb 7.0 02:52:50 17° NE 02:53:12 17° NE 03:13:27 10° E visible
09 Feb 5.3 21:03:48 10° W 21:14:30 23° NW 21:17:19 16° NNW visible
10 Feb 6.4 03:58:12 31° NNE 04:03:39 38° NE 06:25:16 10° ESE visible
